UFO 10 (USA 146)

Last updated on Wed Sep 09 2026 00:02:57 GMT+0000 (Coordinated Universal Time)

1 25967U 99063A 26251.22670247 -.00000203 00000+0 00000+0 0 9996 2 25967 9.9091 26.7548 0003967 187.0734 192.2281 1.00269721 98185
UTC large
Height (km)
Speed (km/s)
/
Latitude / Longitude
Inclination (degrees)
Orbital Period (minutes)
Azimuth
Elevation
Range (km)
Doppler Factor

Next 0 passes for location: London (51.5072 / 0.1276)

No passes found over London.
UFO 10 (USA 146)